Location: Albany
(35.0000°S, 118.0000°E)
Time: 20:06:23
(UTC-05:00)

Transit 2A - Visible Passes

Search period start: 20 December 2014 00:00
Search period end: 30 December 2014 00:00
Orbit: 594 x 967 km, 66.7° (Epoch: 20 December)

Date Brightness Start Highest point End Pass type
(mag) Time Alt. Az. Time Alt. Az. Time Alt. Az.
20 Dec 7.5 11:17:43 30° ESE 11:17:43 30° ESE 11:21:07 10° SE visible
20 Dec 7.3 12:58:13 29° WSW 12:59:15 31° WSW 13:04:06 10° S visible
21 Dec 8.1 10:44:48 19° ESE 10:44:48 19° ESE 10:46:58 10° SE visible
21 Dec 6.8 12:25:18 44° WSW 12:25:30 44° WSW 12:30:45 10° SSE visible
22 Dec 8.5 10:11:50 12° ESE 10:11:50 12° ESE 10:12:24 10° ESE visible
22 Dec 6.5 11:52:20 61° SSW 11:52:20 61° SSW 11:57:16 10° SSE visible
23 Dec 6.6 11:19:19 58° SSE 11:19:19 58° SSE 11:23:40 10° SSE visible
23 Dec 8.4 12:59:49 12° WSW 13:01:54 14° SW 13:04:39 10° SSW visible
24 Dec 7.1 10:46:15 42° SE 10:46:15 42° SE 10:49:56 10° SE visible
24 Dec 8.0 12:26:45 18° WSW 12:28:00 20° SW 12:31:54 10° S visible
25 Dec 7.5 10:13:07 29° ESE 10:13:07 29° ESE 10:16:04 10° SE visible
25 Dec 7.6 11:53:36 27° WSW 11:54:10 27° SW 11:58:47 10° S visible
26 Dec 7.9 09:39:55 20° ESE 09:39:55 20° ESE 09:41:59 10° SE visible
26 Dec 7.2 11:20:24 39° WSW 11:20:24 39° WSW 11:25:28 10° S visible
27 Dec 8.3 09:06:39 13° ESE 09:06:39 13° ESE 09:07:34 10° ESE visible
27 Dec 6.7 10:47:07 55° SW 10:47:07 55° SW 10:52:01 10° SSE visible
28 Dec 6.4 10:13:45 67° S 10:13:45 67° S 10:18:27 10° SSE visible
28 Dec 8.7 11:54:45 10° WSW 11:56:50 12° SW 11:58:52 10° SSW visible
29 Dec 6.4 09:40:16 58° ESE 09:40:16 58° ESE 09:44:45 10° SSE visible
29 Dec 8.4 11:20:44 14° WSW 11:22:55 17° SW 11:26:24 10° S visible
